Wind_Speed
77 77 78 78 78 79 80 80 81 82 83 84 85 85 85 85 85 86 86 86 86 86 86 86 86 86 87 88 88 89 89 90 90 91 92 92 93 94 96 97 99 100 101 102 101 101 100 99 99 98 99 99 100 100 101 103 104 106 108 109 111 113 115 116 118 119 120 121 122 123 124 125 126 127 127 127 127 127 126 126 127 127 128 129 130 131
78 78 78 79 79 79 80 81 82 83 84 85 85 85 85 85 86 86 86 86 85 85 86 86 86 87 88 88 89 89 90 91 91 92 93 94 95 96 98 99 100 101 102 102 101 100 99 99 99 99 99 100 101 102 103 105 106 108 110 111 113 115 117 118 119 121 122 123 124 125 126 127 127 128 128 127 127 127 127 127 128 129 130 131 132 132
78 78 79 79 80 80 81 82 83 84 84 85 85 85 86 86 86 86 86 85 85 86 86 86 87 88 88 89 89 90 91 92 92 93 94 95 96 98 99 101 102 102 102 101 101 100 99 99 99 100 100 101 102 103 105 106 108 110 111 113 115 117 118 120 121 123 124 125 125 126 127 128 128 128 128 128 127 127 127 128 129 130 131 132 133 133
78 79 79 80 81 81 82 83 84 84 85 85 85 86 86 86 86 86 86 85 86 86 86 87 88 88 89 90 90 91 92 92 93 94 95 96 98 99 101 102 102 102 102 101 100 99 99 99 100 100 101 102 103 105 106 108 110 111 113 115 117 119 120 122 123 124 125 126 127 128 128 129 129 128 128 128 128 128 128 130 131 132 132 133 133 133
79 79 80 81 81 82 83 84 84 84 85 85 85 86 86 86 86 86 86 86 86 86 87 88 88 89 90 90 91 92 93 93 94 95 97 98 99 101 102 102 103 102 101 100 100 99 100 100 101 101 102 103 105 106 108 110 111 113 115 117 119 120 122 123 125 126 127 128 128 129 129 129 129 128 128 128 128 129 130 131 132 133 133 134 134 134
79 80 81 81 82 83 84 84 84 84 85 85 85 85 86 86 86 86 86 86 87 87 88 89 89 90 90 91 92 93 94 95 96 97 98 100 101 102 102 103 102 102 101 100 100 100 100 101 102 102 104 105 106 108 110 111 113 115 117 119 120 122 124 125 126 127 128 129 129 130 129 129 129 128 128 129 129 130 131 132 133 133 134 134 134 133
80 81 82 82 83 84 84 84 84 84 84 84 85 85 85 86 86 86 86 87 87 88 89 90 90 91 91 92 93 94 95 96 97 98 100 101 102 102 103 103 102 102 101 101 101 101 101 102 102 103 105 106 108 109 111 113 115 117 119 120 122 124 125 126 128 128 129 130 130 130 130 129 129 129 129 129 130 131 132 133 133 134 134 134 133 132
81 82 82 83 83 84 84 84 84 84 84 84 85 85 85 86 86 86 87 87 88 89 89 90 91 92 92 93 94 95 96 97 98 100 101 102 102 103 103 103 102 102 102 101 101 102 102 103 104 105 106 108 109 111 113 114 116 118 120 122 124 125 127 128 129 129 130 130 130 130 129 129 129 129 130 130 131 132 133 133 134 134 134 133 132 131
81 82 83 84 83 83 83 84 84 84 84 84 84 85 85 86 86 87 87 88 89 89 90 91 92 93 94 94 95 96 97 99 100 101 102 102 103 103 103 103 103 103 102 102 102 102 103 104 105 106 108 109 111 113 114 116 118 120 122 124 125 126 128 129 129 130 130 130 130 129 129 129 129 130 130 131 132 133 133 134 134 134 133 132 131 130
82 83 83 84 83 83 83 83 84 84 84 84 85 85 86 86 87 88 88 89 90 90 91 92 92 94 95 96 97 98 99 100 101 102 102 103 103 103 103 103 103 103 103 103 103 103 104 105 106 108 109 111 113 114 116 118 120 122 123 125 126 128 129 129 130 130 130 130 129 129 129 129 130 130 131 132 133 133 134 134 134 133 132 131 129 127
83 83 83 83 83 83 83 83 84 84 85 85 86 86 86 87 87 88 89 90 91 91 92 93 93 95 96 97 98 99 100 101 102 102 103 103 103 104 104 104 104 104 103 104 104 104 105 106 108 110 111 113 114 116 118 120 122 123 125 126 128 129 130 130 131 131 130 130 129 129 129 130 131 131 132 133 133 134 134 134 133 132 130 129 127 124
83 83 83 83 82 82 83 84 84 85 85 85 86 86 87 87 88 88 89 90 91 92 93 94 95 96 97 98 99 100 101 102 102 103 103 104 104 104 104 104 104 104 104 104 105 105 106 108 110 111 113 115 116 118 120 122 124 125 127 128 129 130 130 131 131 130 130 129 129 129 130 131 132 132 133 134 134 134 134 133 131 130 128 126 123 121
83 83 83 82 82 82 83 84 84 85 85 86 86 86 87 88 88 89 90 91 92 93 93 95 96 97 98 99 100 101 102 102 103 103 104 104 104 105 105 105 105 105 105 105 106 107 108 110 112 113 115 116 118 120 122 123 125 127 128 129 130 130 131 131 130 129 129 129 129 130 131 132 133 133 134 134 134 134 133 131 129 127 124 122 120 118
83 83 82 82 82 83 84 84 85 85 86 86 86 87 88 89 89 90 91 92 93 94 95 96 97 98 99 100 100 101 102 103 104 104 104 105 105 105 105 105 105 105 105 106 107 109 110 112 113 115 117 118 120 122 124 125 127 128 129 130 130 131 131 130 129 129 129 129 130 131 132 133 133 134 134 134 133 132 130 128 126 123 121 119 117 115
82 82 81 82 83 83 84 84 85 85 86 87 87 88 89 90 90 91 92 93 94 95 96 97 98 99 100 100 101 102 103 104 104 105 105 105 105 105 105 105 105 106 107 108 109 111 112 114 115 117 118 120 122 124 125 127 128 129 130 131 131 131 130 129 129 129 129 130 131 132 133 133 134 134 134 133 131 129 127 124 122 120 117 115 113 111
82 81 82 82 83 84 85 85 85 86 87 87 88 89 90 90 91 92 93 94 95 96 97 98 99 100 101 101 101 102 103 104 105 105 105 105 105 105 105 105 106 107 108 109 111 113 114 115 117 118 120 122 124 125 127 128 129 130 131 131 131 130 130 129 129 130 130 131 132 133 133 134 134 133 132 131 128 126 123 120 118 116 114 112 110 108
82 82 83 83 84 85 85 86 86 87 88 88 89 90 90 91 92 93 94 95 96 97 98 99 100 100 101 102 102 103 103 104 105 105 105 105 105 105 105 105 106 108 110 111 113 114 115 117 119 120 122 124 126 127 129 130 131 131 131 131 130 130 129 129 130 131 131 132 133 133 134 134 133 132 130 128 125 122 120 117 115 113 111 109 107 104
83 83 84 85 85 86 86 87 87 88 89 89 90 91 91 92 93 94 95 96 97 98 99 100 100 101 101 102 103 104 104 104 105 105 105 105 105 106 106 106 108 110 111 113 114 116 117 119 120 122 124 126 127 129 130 131 131 131 131 130 130 129 130 130 131 132 132 133 133 134 134 133 132 130 127 124 121 119 116 114 112 110 108 105 103 101
84 85 85 86 87 87 88 88 88 89 89 90 91 91 92 93 94 95 96 97 98 99 100 100 101 101 102 102 103 104 104 104 105 105 105 105 106 106 107 108 110 111 113 114 116 117 119 121 122 124 126 128 129 130 131 132 132 131 131 130 130 130 131 131 132 133 133 134 134 134 133 132 130 127 124 121 118 116 114 112 109 107 104 102 99 97
85 86 87 87 88 88 89 89 89 89 90 91 91 92 93 94 94 95 96 98 99 99 100 100 101 101 102 103 104 104 105 104 104 104 105 105 106 107 109 110 111 113 115 116 117 119 121 123 125 126 128 130 131 132 132 132 132 131 131 130 130 131 132 132 133 133 134 134 134 134 132 130 127 124 121 118 116 113 111 108 106 104 101 99 96 94
86 87 88 88 88 89 89 90 90 90 90 91 92 93 93 94 95 96 97 98 99 100 100 101 101 101 102 103 104 105 105 104 104 104 105 106 108 109 111 112 113 114 116 118 119 121 123 125 127 128 130 131 132 133 133 132 132 131 131 131 132 132 133 133 134 134 135 135 134 133 130 127 124 121 118 115 113 110 108 105 103 100 98 95 93 91
87 88 88 89 89 89 89 90 90 91 91 92 92 93 93 94 95 96 98 99 99 100 100 101 101 102 103 103 104 105 105 104 104 104 106 108 109 111 112 113 114 116 117 119 121 123 125 127 128 130 131 132 133 133 133 132 132 131 131 132 133 133 133 134 134 135 135 134 133 130 127 124 121 118 115 112 110 107 104 102 99 97 95 92 90 88
87 88 88 89 89 89 89 90 90 91 92 92 92 93 93 94 95 96 98 99 100 100 100 101 101 102 103 104 104 105 104 104 105 106 107 109 111 113 114 115 116 117 119 121 123 125 127 128 130 131 133 133 133 133 133 132 132 132 132 133 133 134 134 135 135 135 134 133 130 127 124 121 117 114 112 109 106 104 101 98 96 94 92 90 88 86
88 88 88 89 89 89 90 90 91 91 92 92 92 93 93 94 96 97 98 99 100 100 100 101 102 103 104 104 104 104 105 105 106 107 109 110 112 114 115 116 117 119 121 123 125 127 128 130 131 133 133 133 133 133 132 132 132 133 133 133 134 134 134 135 135 134 133 130 127 124 120 117 114 111 108 106 103 100 98 95 93 91 89 87 85 83
88 88 88 89 89 89 90 90 91 91 92 92 92 93 94 95 97 98 99 99 100 100 101 101 102 103 104 104 104 105 106 107 108 109 110 111 113 115 116 117 119 121 123 125 127 128 130 131 132 133 133 133 133 133 132 132 133 133 133 134 134 134 135 135 134 132 130 127 124 120 117 114 111 108 105 102 100 97 95 93 91 89 87 85 82 80
88 88 89 89 89 90 90 90 91 91 91 91 92 93 94 96 97 98 99 99 100 100 101 102 103 103 103 104 104 105 107 108 109 110 111 112 114 116 117 119 120 122 125 127 128 130 131 132 133 133 133 133 133 132 132 133 133 133 133 134 134 134 134 133 132 130 127 123 120 116 113 110 107 105 102 99 97 94 93 91 89 87 84 82 79 77
88 88 89 89 89 89 90 90 90 91 91 91 92 93 95 96 97 98 99 100 100 101 101 102 103 103 103 104 105 106 108 109 110 111 112 113 114 116 119 121 122 124 126 128 129 130 131 132 133 133 133 133 133 133 133 133 133 133 133 133 134 134 133 131 129 126 123 120 116 113 110 107 104 101 99 96 94 92 90 88 86 84 81 79 76 73
88 88 88 89 89 89 90 90 90 90 91 92 93 94 96 97 97 98 99 100 101 101 102 102 102 103 104 105 106 108 109 110 111 112 113 114 115 118 120 122 123 125 127 129 130 131 132 132 132 132 132 132 133 133 133 133 133 133 133 133 133 133 131 129 126 123 120 116 113 110 107 104 101 99 96 94 92 90 88 86 83 81 78 75 72 70
87 87 88 88 88 89 89 89 90 90 91 92 94 95 96 97 98 98 99 100 101 101 102 102 102 103 104 106 107 109 110 111 112 113 114 115 117 119 121 123 124 126 128 129 131 132 132 132 132 132 132 132 133 133 133 133 133 133 133 133 132 131 129 126 123 120 117 113 110 107 104 101 98 96 94 91 90 87 85 83 80 77 74 72 69 67
87 87 87 88 88 89 89 89 90 91 92 93 95 96 97 97 98 99 100 101 101 101 101 102 103 104 105 107 108 110 111 112 113 114 115 116 118 120 122 124 125 127 128 129 131 132 133 133 132 132 132 133 133 133 133 133 133 133 133 133 131 129 126 123 120 117 113 110 107 104 101 98 96 93 91 89 87 85 82 80 77 74 71 69 66 64
86 87 87 88 88 89 89 90 91 92 93 94 96 96 97 98 99 99 100 100 101 101 101 102 103 105 106 107 108 109 111 113 114 115 116 117 119 121 123 124 126 127 128 129 130 131 133 133 133 132 132 133 133 133 133 133 134 134 133 132 129 126 123 120 117 114 110 107 104 100 98 95 93 91 89 87 84 82 79 76 73 71 68 66 64 62
87 87 88 88 89 89 90 91 92 93 94 95 96 97 98 98 99 100 100 100 101 101 102 103 104 105 107 107 108 109 111 113 115 116 117 118 120 122 124 125 126 127 128 128 129 130 131 133 133 133 133 133 133 133 133 134 134 134 133 131 127 124 120 117 114 111 107 104 100 97 95 93 91 89 86 84 81 78 75 73 70 68 66 63 61 59
87 88 88 89 89 90 91 92 93 94 95 96 97 98 98 99 100 100 100 101 101 102 102 103 105 106 107 108 109 110 112 114 116 117 118 119 121 123 124 125 126 127 128 129 129 130 130 132 133 133 133 133 133 134 134 134 134 133 131 128 125 121 117 114 111 108 104 101 97 95 92 90 88 86 83 80 78 75 72 70 67 65 63 61 59 56
88 88 89 90 90 91 92 93 94 95 96 96 97 98 99 99 100 100 101 101 102 102 103 104 105 106 107 108 110 112 113 115 117 118 119 120 122 123 124 125 126 127 128 129 129 130 131 131 132 133 134 134 134 134 134 135 134 132 129 125 122 118 114 111 108 105 101 98 95 92 90 88 85 83 80 77 74 72 69 67 65 63 61 59 56 53
89 89 90 90 91 92 93 94 94 95 96 97 98 99 99 100 100 101 101 102 102 103 104 104 105 106 107 109 110 112 114 116 118 119 120 121 122 123 124 125 126 127 128 129 130 130 131 132 132 133 134 135 135 135 134 134 133 130 126 122 118 114 111 108 105 102 98 95 92 90 87 85 82 79 76 74 71 69 67 65 63 61 59 56 53 51
89 90 90 91 92 92 93 94 95 96 97 98 99 99 100 100 100 101 101 102 103 104 104 105 106 107 108 110 111 113 115 117 118 120 121 121 122 123 124 125 126 127 128 129 129 130 131 132 133 133 134 135 136 137 135 133 130 127 123 118 114 111 108 105 102 99 95 92 90 87 84 81 79 76 73 71 69 67 65 63 61 59 56 54 51 48
90 90 91 92 92 93 94 95 96 97 98 98 99 100 100 100 101 101 102 102 103 104 105 106 107 109 110 111 112 114 115 117 119 120 121 122 122 123 124 125 126 127 127 128 129 130 131 132 133 134 134 136 137 137 136 133 129 124 120 115 112 109 106 103 99 95 93 90 87 84 81 78 75 73 71 69 67 65 63 61 59 56 54 51 48 46
91 91 92 93 93 94 95 96 97 98 98 99 99 100 100 100 101 101 102 103 103 104 105 107 108 110 111 112 114 115 116 118 119 120 121 122 122 123 124 125 126 126 127 127 128 130 131 132 133 134 136 136 137 136 135 132 128 123 117 113 109 106 103 99 96 93 90 87 84 81 78 75 73 70 69 67 65 63 61 59 57 54 51 49 46 44
91 92 93 94 94 95 96 97 98 98 99 99 99 100 100 100 101 102 102 103 104 105 106 107 109 110 112 113 114 115 117 118 119 120 121 122 123 123 124 125 126 126 127 127 128 129 131 132 133 135 136 137 137 136 133 129 124 119 115 111 107 103 100 96 93 90 87 84 81 78 75 72 70 69 67 65 63 61 59 57 54 52 49 46 44 42
92 93 94 94 95 96 97 98 98 99 99 99 99 99 100 100 101 102 103 104 105 106 107 109 110 111 112 113 114 116 117 118 119 120 121 122 123 123 124 125 125 126 127 127 128 129 131 132 133 134 135 137 137 135 131 126 121 116 112 109 105 101 97 93 90 87 84 81 78 75 73 71 69 67 65 64 62 60 57 55 52 49 47 44 42 40
93 94 94 95 96 97 98 98 98 99 99 99 99 99 100 101 101 102 103 105 106 107 108 110 111 112 113 114 115 116 117 118 119 120 121 122 123 124 124 125 125 126 127 128 129 130 130 132 133 134 135 135 135 132 129 124 118 113 110 106 102 98 93 90 87 84 81 78 75 73 71 69 68 66 64 62 60 58 55 52 50 47 45 42 40 38
93 94 95 96 97 97 98 98 98 98 98 98 98 99 100 101 102 103 104 105 106 108 109 110 110 112 113 114 115 116 117 118 119 120 121 122 123 124 124 125 125 126 127 128 129 130 130 132 133 134 135 134 133 130 126 121 115 110 106 103 98 94 90 87 84 81 78 75 73 71 70 68 67 65 63 60 58 55 53 50 47 45 42 40 38 37
94 95 96 96 97 98 98 98 97 98 98 98 99 100 101 102 102 103 104 106 107 108 109 110 110 111 112 114 115 116 117 118 119 120 121 122 123 124 124 125 125 126 127 128 129 130 131 132 133 133 133 132 130 127 123 118 113 108 103 99 94 91 88 85 81 78 76 74 72 71 69 67 65 63 61 59 56 53 50 48 45 43 40 38 37 35
94 95 96 97 97 97 97 97 97 97 98 98 99 100 101 102 103 104 105 106 107 107 108 109 110 111 112 113 115 116 117 118 119 120 121 122 123 123 124 125 126 126 127 128 129 131 132 132 133 132 131 129 126 123 119 114 110 105 100 95 91 87 85 82 79 76 74 73 71 70 68 66 64 62 59 57 54 51 48 45 43 41 39 36 35 33
95 95 96 96 96 96 96 96 97 97 98 99 100 100 101 102 103 104 104 105 106 107 107 108 109 111 112 113 114 116 117 118 119 121 121 122 123 123 124 125 126 127 127 128 129 130 131 133 133 132 129 126 122 118 114 111 107 102 97 91 87 84 82 79 76 75 73 72 71 69 67 65 63 60 57 54 51 49 46 43 41 39 37 35 33 31
94 95 95 95 95 95 95 96 97 97 98 99 100 100 101 102 103 103 104 104 105 106 107 108 109 110 111 113 114 115 117 118 119 121 121 122 123 123 124 125 126 127 128 128 129 130 130 131 131 130 127 123 119 114 110 107 104 99 93 89 85 82 80 77 75 74 73 72 71 69 66 63 61 58 55 52 49 46 44 41 39 37 35 33 31 30
94 94 95 95 95 95 96 96 97 97 98 98 99 100 100 101 102 103 103 103 104 105 107 108 109 110 111 112 114 115 117 118 119 120 121 122 122 123 124 125 126 127 128 128 129 129 130 129 128 126 123 120 116 111 107 104 100 95 90 86 83 81 78 76 74 74 73 72 70 68 65 62 59 56 53 50 47 44 42 39 37 35 33 32 30 28
94 94 94 94 95 95 95 96 96 97 97 98 98 99 100 101 101 101 102 103 104 105 107 108 109 110 111 113 114 115 116 118 119 120 120 121 122 123 124 125 126 127 128 128 129 129 128 127 125 122 118 115 112 109 105 101 97 92 88 85 82 79 77 75 74 73 73 71 69 66 63 60 57 54 51 48 45 42 40 38 35 34 32 30 28 27
93 93 94 94 94 95 95 95 96 96 96 97 98 99 100 100 100 101 101 103 104 105 106 107 109 110 111 113 114 116 117 117 118 119 120 120 121 123 124 125 126 127 128 128 128 128 126 124 121 117 113 110 107 105 103 99 94 90 86 83 80 78 76 75 74 74 72 70 68 65 62 58 55 52 49 46 43 41 38 36 34 32 30 29 27 25
93 93 93 93 94 94 94 95 95 95 96 97 97 98 99 99 100 100 101 103 104 105 106 107 109 110 112 113 115 116 116 117 118 118 119 120 121 122 124 125 126 127 128 129 128 127 125 122 118 112 108 105 103 102 100 96 92 88 85 82 79 77 76 75 75 73 72 69 66 63 60 57 53 50 47 44 41 39 37 35 33 31 29 27 26 24
92 92 93 93 93 93 93 94 94 95 95 96 97 97 98 98 99 101 102 103 104 105 106 108 109 110 112 113 114 115 116 117 117 118 119 120 121 123 124 125 126 127 128 129 128 127 124 120 116 111 106 102 100 98 96 93 90 87 84 81 78 76 75 75 75 73 71 68 65 61 58 55 52 48 45 42 40 38 35 33 31 30 28 26 25 23
Wind_Direction
290 291 292 293 293 294 295 296 297 298 299 300 301 301 302 302 303 303 303 304 304 305 305 305 306 306 306 306 306 306 306 306 306 306 306 306 306 306 307 307 308 309 310 310 311 312 312 312 312 312 312 312 311 311 311 312 312 313 313 313 314 314 314 314 314 313 313 313 313 313 313 313 313 313 313 313 313 313 313 313 313 313 312 312 312 312
290 291 292 293 293 294 295 296 297 298 299 300 301 301 302 302 303 303 304 304 304 305 305 305 305 306 306 306 306 306 306 306 306 306 306 306 306 307 307 308 309 309 310 311 312 312 312 312 312 312 312 311 311 311 312 312 313 313 313 314 314 314 314 314 314 314 314 314 314 314 313 313 313 313 313 313 313 313 313 313 313 313 312 312 312 312
290 291 292 293 294 295 296 297 298 299 300 300 301 302 302 303 303 303 304 304 304 304 305 305 305 306 306 306 306 306 306 306 306 306 306 306 307 307 308 308 309 310 311 312 312 312 312 312 312 312 312 312 312 312 312 313 313 313 314 314 314 314 314 314 314 314 314 314 314 314 314 314 314 314 314 314 313 313 313 313 313 313 313 313 313 312
290 291 292 293 294 295 296 297 298 299 300 301 301 302 302 303 303 303 303 304 304 304 304 305 305 305 305 305 306 306 306 306 306 306 307 307 307 308 308 309 310 311 311 312 312 312 312 312 312 312 312 312 312 312 312 313 313 313 314 314 314 314 314 314 314 314 314 314 314 314 314 314 314 314 314 313 313 313 313 313 313 313 313 313 313 312
290 291 292 293 294 296 297 298 299 299 300 301 301 302 302 303 303 303 303 303 304 304 304 305 305 305 305 305 306 306 306 306 306 307 307 307 308 309 309 310 311 311 312 312 312 312 312 312 312 312 312 312 312 312 313 313 313 313 313 313 313 313 314 314 314 314 314 314 314 314 314 314 314 314 313 313 313 313 313 313 313 313 313 313 313 312
290 291 292 294 295 296 297 298 299 300 301 301 302 302 302 302 302 303 303 303 304 304 304 305 305 305 305 305 306 306 306 306 307 307 307 308 309 309 310 311 311 312 312 312 312 312 312 312 312 312 312 312 312 312 313 313 313 313 313 313 313 313 314 314 314 314 314 314 314 314 314 314 314 313 313 313 313 313 313 313 314 313 313 313 312 312
291 292 293 294 296 297 298 299 299 300 301 301 302 302 302 302 302 302 303 303 303 304 304 304 305 305 305 305 306 306 306 307 307 308 308 309 309 310 311 311 311 312 312 312 312 312 312 312 312 312 312 312 312 312 313 313 313 313 313 313 313 313 314 314 314 314 314 314 314 314 314 314 313 313 313 313 313 314 314 314 314 314 313 313 312 312
291 293 294 295 296 297 298 299 299 300 301 301 301 301 301 301 302 302 302 303 303 303 304 304 304 305 305 305 306 306 307 307 308 308 309 310 310 311 311 311 312 312 312 312 312 312 312 312 312 311 312 312 312 312 312 313 313 313 313 313 313 313 314 314 314 314 314 314 314 314 313 313 313 313 313 313 314 314 314 314 314 314 313 313 312 312
292 293 295 296 297 298 298 299 299 300 300 300 300 301 301 301 302 302 302 303 303 303 304 304 304 305 305 305 306 307 307 308 308 309 310 310 311 311 311 311 312 312 312 312 312 312 312 311 311 311 311 312 312 312 312 312 312 312 313 313 313 314 314 314 314 314 314 314 314 313 313 313 313 313 314 314 314 315 315 315 314 314 313 313 312 312
293 294 295 296 297 297 298 299 299 300 300 300 300 300 301 301 301 302 302 303 303 303 304 304 304 305 305 306 306 307 308 309 309 310 310 311 311 311 311 312 312 312 312 312 312 312 311 311 311 311 311 312 312 312 312 312 312 312 313 313 313 314 314 314 314 314 314 314 313 313 313 313 314 314 315 315 315 315 315 315 315 314 313 313 312 312
293 294 295 296 297 297 298 298 299 299 299 300 300 300 301 301 301 302 302 302 303 303 304 304 305 305 306 307 307 308 309 309 310 310 311 311 311 311 312 312 312 312 312 312 312 311 311 311 311 311 311 311 311 312 312 312 312 313 313 313 314 314 314 314 314 314 313 313 313 313 313 314 315 315 315 316 316 316 316 315 315 314 313 313 312 312
294 294 295 296 297 297 298 298 298 299 299 299 300 300 301 301 301 301 302 302 303 303 304 304 305 306 306 307 308 309 309 310 310 310 311 311 311 312 312 312 313 313 312 312 311 311 311 311 311 311 311 311 311 311 312 312 312 313 313 314 314 314 314 314 314 313 313 313 313 314 314 315 316 316 316 316 316 316 316 315 314 314 313 312 312 312
294 294 295 296 296 297 297 298 298 299 299 299 300 300 300 301 301 301 301 302 303 303 304 305 305 306 307 308 308 309 309 310 310 311 311 311 312 312 312 313 313 312 312 311 311 310 310 310 311 311 311 311 311 312 312 312 313 313 314 314 314 314 314 314 313 313 313 314 314 315 315 316 316 317 317 317 317 316 315 315 314 313 313 312 312 312
294 294 295 296 296 297 297 298 298 299 299 299 300 300 300 300 301 301 302 302 303 304 304 305 306 306 307 308 308 309 310 310 310 311 311 312 312 312 313 312 312 312 311 311 310 310 310 311 311 311 311 311 311 312 312 313 313 314 314 314 314 314 314 313 313 314 314 315 315 316 316 317 317 317 317 317 316 316 315 314 314 313 313 312 312 312
294 294 295 295 296 296 297 297 298 299 299 299 299 299 300 300 301 301 302 303 303 304 305 305 306 307 307 308 309 309 310 310 310 311 312 312 312 312 312 312 311 311 310 310 310 310 310 310 311 311 311 311 312 312 313 313 313 314 314 314 314 314 314 314 314 314 315 316 316 317 317 317 318 318 317 317 316 315 315 314 313 313 313 313 312 312
293 294 294 295 295 296 297 297 298 298 299 299 299 299 300 300 301 302 302 303 304 304 305 306 306 307 308 308 309 309 310 310 311 311 312 312 312 312 312 311 310 310 310 310 310 310 310 310 310 311 311 311 312 312 313 313 314 314 314 314 314 314 314 314 315 316 316 317 317 318 318 318 318 318 317 316 316 315 314 314 314 313 313 313 313 313
292 293 294 294 295 296 296 297 297 298 298 299 299 299 300 301 301 302 303 303 304 305 305 306 307 307 308 309 309 309 310 310 311 311 312 312 312 311 311 310 309 309 309 310 310 310 310 310 310 311 311 312 312 313 313 313 314 314 314 314 314 314 315 315 316 317 317 317 318 318 318 318 318 317 317 316 315 315 315 314 314 314 314 313 313 313
292 293 293 294 295 295 296 297 297 298 298 299 299 300 300 301 302 302 303 304 304 305 306 306 307 308 308 308 309 309 310 311 311 311 311 311 311 311 310 309 309 309 309 309 310 310 310 310 310 311 311 312 313 313 313 314 314 314 314 314 315 315 316 316 317 317 318 318 318 319 319 318 318 317 317 316 316 315 315 315 315 314 314 314 314 314
292 292 293 294 295 295 296 297 297 298 299 299 300 300 301 301 302 303 303 304 304 305 306 307 307 308 308 308 309 309 310 311 311 311 311 310 310 310 309 309 309 309 309 309 310 310 310 310 311 311 312 312 313 313 314 314 314 314 315 315 316 316 317 317 318 318 319 319 319 319 319 319 318 318 317 317 316 316 316 315 315 315 315 315 314 314
291 292 293 294 295 296 296 297 298 298 299 299 300 301 301 302 302 303 303 304 305 305 306 307 307 308 308 308 309 309 310 311 311 310 310 310 309 309 309 309 309 309 309 309 309 310 310 311 311 312 312 313 313 314 314 314 315 315 316 316 317 317 318 318 319 319 319 320 320 320 319 319 318 318 318 317 317 316 316 316 316 315 315 315 315 315
292 292 293 294 295 296 297 298 298 299 299 300 300 301 301 302 302 303 303 304 305 305 306 307 307 307 308 308 309 309 310 310 310 310 309 309 309 309 309 309 309 309 309 309 310 310 311 311 312 312 313 313 314 314 315 315 315 316 316 317 317 318 318 319 319 320 320 320 320 320 320 319 319 318 318 318 317 317 316 316 316 316 316 316 316 316
292 292 294 295 295 296 297 298 298 299 299 300 300 301 301 302 302 303 303 304 305 305 306 306 307 307 308 308 309 309 310 310 309 309 309 308 308 309 309 309 309 309 309 309 310 311 311 312 312 313 313 314 314 315 315 316 316 317 317 318 318 319 319 320 320 321 321 321 320 320 320 319 319 319 318 318 317 317 317 317 317 317 317 317 317 317
292 293 294 295 296 296 297 298 298 298 299 299 300 301 301 302 302 303 303 304 305 305 306 306 306 307 308 308 309 309 309 309 309 308 308 308 308 309 309 309 309 309 309 310 310 311 312 312 313 313 314 314 315 315 316 316 317 317 318 318 319 319 320 320 321 321 321 321 321 321 320 320 319 319 318 318 318 318 317 317 317 317 317 318 318 318
292 293 294 295 296 296 297 297 298 298 299 299 300 300 301 301 302 302 303 304 304 305 305 306 306 307 308 308 308 308 308 308 308 308 308 308 308 309 309 309 309 309 310 310 311 312 312 313 313 314 314 315 315 316 316 317 317 318 318 319 319 320 321 321 321 321 321 321 321 321 320 320 319 319 319 318 318 318 318 318 318 318 318 318 318 318
292 293 294 295 295 296 296 297 297 298 299 299 299 300 300 301 301 302 303 303 304 304 305 306 307 307 308 308 308 308 307 308 308 308 308 308 308 309 309 309 309 310 310 311 312 312 313 313 314 314 315 315 316 316 317 317 318 318 319 319 320 321 321 321 322 322 322 322 321 321 320 320 320 319 319 319 319 319 319 319 319 319 319 319 319 319
292 293 294 295 295 296 296 297 297 298 298 298 299 299 300 300 301 302 302 303 304 304 305 306 307 307 307 307 307 307 307 307 308 308 308 308 308 309 309 310 310 310 311 311 312 313 313 314 314 315 315 316 316 317 317 318 318 319 319 320 321 321 322 322 322 322 322 322 322 321 321 320 320 320 320 320 320 320 320 319 319 319 319 319 319 319
293 293 294 294 295 295 296 296 297 297 297 298 298 299 299 300 301 302 302 303 303 304 305 306 306 307 307 306 306 306 307 307 308 308 308 308 308 309 309 310 310 311 311 312 313 313 314 314 315 315 316 316 317 317 318 318 319 319 320 321 321 322 322 323 323 323 323 322 322 321 321 321 320 320 320 320 320 320 320 320 320 320 320 319 319 319
293 293 294 294 295 295 295 296 296 296 297 297 297 298 299 300 301 301 302 303 304 304 305 306 306 306 306 306 306 306 307 307 308 308 308 308 308 309 309 310 311 311 312 312 313 313 314 314 315 315 316 316 317 317 318 318 319 320 321 321 322 322 323 323 324 324 323 322 322 322 321 321 321 321 321 321 321 321 320 320 320 320 320 320 320 320
292 293 293 294 294 294 295 295 295 295 296 296 297 298 299 300 300 301 302 303 304 305 305 305 305 305 305 305 306 306 307 307 308 308 308 309 309 309 310 311 311 312 312 313 313 314 314 315 315 316 316 317 317 318 318 319 320 321 321 322 323 323 324 324 324 324 323 323 322 322 322 322 322 322 321 321 321 321 321 320 320 320 320 321 320 320
291 292 292 293 293 293 294 294 294 295 295 296 297 298 298 299 300 301 302 303 304 304 305 305 304 304 305 305 306 306 307 307 308 308 308 309 309 309 310 311 311 312 313 313 314 314 315 315 316 316 317 317 317 318 319 320 321 322 322 323 323 324 324 325 325 324 323 323 323 323 322 322 322 322 322 322 321 321 321 321 321 321 321 321 321 321
290 291 291 292 292 292 293 293 294 294 295 296 296 297 298 299 300 301 302 303 303 304 304 304 304 304 305 305 306 306 307 307 308 308 308 309 309 310 310 311 312 312 313 314 314 315 315 316 316 316 317 317 318 319 320 321 322 322 323 324 324 325 325 325 325 324 324 323 323 323 323 323 323 322 322 322 321 321 321 321 322 322 322 322 322 322
289 290 290 291 291 292 292 292 293 294 294 295 296 297 298 299 300 301 302 302 303 303 303 303 304 304 305 305 306 306 306 307 307 308 308 309 309 310 311 311 312 313 313 314 314 315 315 316 316 317 317 318 319 320 321 322 323 323 324 324 325 325 326 326 325 325 324 324 324 324 324 323 323 323 322 322 322 322 322 322 323 323 324 323 323 322
289 289 289 290 290 291 291 292 292 293 294 295 296 297 298 299 300 301 301 302 302 302 303 303 304 304 305 305 306 306 306 307 307 308 309 309 310 310 311 312 312 313 314 314 315 315 315 316 316 317 318 318 319 321 322 323 323 324 324 325 325 326 326 326 325 325 324 324 324 324 324 324 323 323 322 322 322 322 323 324 324 325 324 324 324 323
288 288 289 289 290 290 291 291 292 293 294 295 296 297 298 299 300 301 301 301 302 302 302 303 304 304 305 305 306 306 306 307 307 308 309 309 310 311 311 312 313 313 314 314 315 315 316 316 317 317 318 319 320 322 323 323 324 324 325 325 326 326 326 326 326 325 325 325 325 325 324 324 323 323 323 323 323 324 324 325 325 325 325 325 325 325
287 288 288 289 289 290 290 291 292 293 294 295 296 297 298 299 300 300 300 301 301 302 302 303 304 304 305 305 305 306 306 307 308 308 309 310 310 311 312 313 313 314 314 315 315 316 316 317 317 318 319 320 321 322 323 324 324 325 325 326 326 327 327 327 326 326 325 325 325 325 325 324 324 324 324 324 325 325 326 326 327 326 326 326 326 326
287 287 288 288 289 289 290 291 292 293 294 295 296 297 298 299 299 300 300 301 301 302 302 303 304 304 304 305 305 306 306 307 308 309 309 310 311 312 312 313 313 314 315 315 315 316 316 317 318 319 320 321 322 323 324 324 325 325 326 326 327 327 327 327 326 326 326 326 326 325 325 325 325 325 325 326 326 327 327 327 327 327 327 326 327 327
286 287 287 288 288 289 290 291 292 293 294 295 296 297 298 298 299 299 300 300 301 302 303 303 304 304 304 305 305 306 306 307 308 309 310 310 311 312 313 313 314 314 315 315 316 316 317 318 319 320 321 322 323 324 324 325 325 325 326 327 328 328 328 327 327 326 326 326 326 326 325 326 326 326 327 327 328 328 328 328 328 327 327 328 328 329
286 286 287 287 288 289 290 291 292 293 294 295 296 297 297 298 299 299 300 300 301 302 302 303 303 304 304 305 305 306 307 308 309 309 310 311 311 312 313 313 314 314 315 315 316 317 317 318 319 321 322 323 324 324 324 325 325 326 326 327 328 328 328 328 327 327 327 326 326 326 326 327 327 328 328 329 329 329 329 329 328 328 328 329 330 331
285 286 286 287 288 289 290 291 292 293 294 295 296 296 297 298 298 299 300 300 301 302 302 303 303 304 304 305 306 307 307 308 309 310 310 311 312 312 313 314 314 315 315 316 316 317 318 319 320 321 322 323 324 324 325 325 325 326 327 328 328 329 328 328 328 327 327 327 327 327 328 329 329 330 330 330 330 330 329 329 329 329 329 330 331 332
285 285 286 287 288 289 290 291 292 293 294 295 296 296 297 298 298 299 300 300 301 302 302 303 303 304 305 305 306 307 308 309 309 310 311 311 312 313 313 314 314 315 315 316 317 318 319 320 321 322 323 324 324 325 325 325 325 326 327 328 329 329 329 328 328 327 327 328 328 329 330 330 331 331 331 331 331 330 330 329 329 330 331 332 333 334
284 285 286 287 288 289 290 291 292 293 294 295 295 296 297 297 298 299 300 301 301 302 302 303 304 304 305 306 307 308 308 309 310 310 311 312 312 313 313 314 314 315 316 316 317 318 319 320 322 323 324 324 324 324 325 325 326 326 328 329 329 329 329 328 328 328 328 329 330 331 332 332 332 332 332 331 331 330 330 330 330 331 332 333 334 335
284 285 286 287 288 289 290 291 292 293 294 295 295 296 297 297 298 299 300 301 301 302 303 303 304 305 306 307 307 308 309 309 310 311 311 312 312 313 313 314 315 315 316 317 318 319 320 321 322 323 324 324 324 324 324 325 326 327 328 329 329 329 329 329 328 329 330 331 332 333 333 333 333 333 332 332 331 330 330 330 331 332 333 335 336 336
284 285 286 287 288 289 290 291 292 293 294 295 295 296 297 298 299 299 300 301 302 302 303 304 305 306 306 307 308 308 309 309 310 311 311 312 312 313 314 314 315 315 316 317 318 319 321 322 323 324 324 324 324 324 324 325 326 327 328 329 330 330 329 329 329 330 331 333 334 334 334 334 334 333 333 332 331 330 330 331 332 333 335 336 337 338
284 285 286 287 288 289 291 292 292 293 294 294 295 296 297 298 299 300 301 301 302 303 303 304 305 306 307 307 308 308 309 310 310 311 311 312 313 313 314 314 315 316 317 318 319 320 321 323 323 324 324 324 324 324 324 325 326 327 328 329 330 330 330 330 331 332 333 334 335 335 335 335 334 333 333 332 331 331 331 332 333 335 336 337 338 339
284 285 286 287 289 290 291 292 292 293 294 295 295 296 297 299 299 300 301 301 302 303 304 305 306 306 307 307 308 309 309 310 310 311 312 312 313 313 314 315 315 316 317 318 320 321 322 323 323 324 324 324 324 324 324 325 326 327 329 330 331 331 331 331 332 334 335 336 336 336 335 335 334 333 332 331 331 331 332 333 334 336 337 338 339 340
284 285 287 288 289 290 291 292 292 293 294 295 296 297 298 299 300 300 301 302 302 303 304 305 305 306 307 307 308 309 309 310 310 311 312 312 313 313 314 315 316 317 318 319 320 321 322 323 323 323 324 324 324 324 325 326 327 328 329 331 331 332 332 333 334 336 337 337 337 336 336 335 334 333 332 331 331 332 333 334 336 337 338 339 340 341
285 286 287 288 289 290 291 292 292 293 294 295 296 297 298 299 300 300 301 302 303 303 304 305 305 306 306 307 308 309 309 310 310 311 311 312 313 314 314 315 316 317 318 320 321 322 322 323 323 323 323 323 324 324 325 326 327 329 330 331 332 333 333 335 336 337 338 338 337 336 336 335 334 333 332 332 332 332 333 335 337 338 339 340 341 342
285 286 287 288 289 290 291 292 292 293 294 295 297 297 298 299 300 300 301 302 303 303 304 305 305 306 307 307 308 308 309 310 310 311 311 312 313 314 315 315 317 318 319 320 321 322 322 323 323 323 323 323 324 325 326 327 328 329 331 332 333 334 335 337 338 338 338 338 337 336 336 335 334 333 332 332 332 333 335 336 338 339 340 341 342 343
285 286 287 288 289 290 291 292 293 294 295 296 297 297 298 299 299 300 301 302 303 303 304 304 305 306 306 307 308 308 309 309 310 311 311 312 313 314 315 316 317 318 319 320 321 322 322 322 323 323 323 324 325 325 326 327 329 330 332 333 334 335 337 338 339 339 338 337 337 336 336 335 334 333 333 333 333 334 336 337 339 340 341 342 343 344
286 287 287 288 289 290 291 292 293 294 295 296 297 297 298 299 299 300 301 302 302 303 304 304 305 306 306 307 308 308 309 310 310 311 312 313 313 314 315 316 317 319 320 321 321 322 322 322 323 323 324 325 326 326 327 328 329 331 332 333 335 336 338 339 340 339 338 337 337 336 336 335 334 334 333 333 334 335 337 338 340 341 342 343 344 345
286 287 287 288 289 290 291 292 293 294 295 296 296 297 298 299 300 300 301 302 302 303 303 304 305 306 306 307 308 308 309 310 310 311 312 313 314 315 316 317 318 319 320 321 321 322 322 322 323 323 324 325 327 328 328 329 330 331 332 334 336 338 339 340 340 339 338 337 337 336 336 335 335 334 334 334 335 336 338 339 340 342 342 344 345 346
Height
10632 10632 10631 10630 10628 10627 10624 10623 10621 10619 10616 10614 10613 10611 10610 10607 10605 10602 10600 10597 10595 10592 10590 10587 10584 10582 10579 10576 10573 10570 10567 10564 10562 10558 10555 10552 10549 10546 10542 10538 10535 10532 10528 10524 10520 10516 10512 10507 10503 10498 10493 10489 10485 10480 10476 10472 10467 10462 10458 10453 10448 10443 10438 10433 10428 10423 10418 10413 10408 10402 10397 10392 10386 10380 10375 10369 10363 10357 10352 10345 10340 10333 10328 10322 10315 10308
10628 10627 10627 10625 10624 10622 10620 10618 10617 10615 10613 10610 10608 10606 10605 10602 10600 10598 10595 10593 10590 10588 10585 10582 10580 10577 10574 10571 10568 10565 10562 10559 10557 10553 10550 10547 10543 10540 10537 10533 10530 10526 10522 10518 10514 10510 10505 10501 10497 10492 10487 10483 10478 10474 10469 10465 10460 10456 10451 10446 10442 10437 10431 10426 10421 10415 10410 10405 10400 10395 10389 10383 10378 10372 10366 10360 10354 10348 10343 10337 10331 10325 10318 10312 10305 10298
10624 10623 10622 10620 10619 10617 10615 10614 10612 10611 10609 10606 10603 10601 10599 10597 10595 10593 10590 10588 10586 10583 10581 10578 10575 10572 10570 10567 10563 10560 10557 10555 10552 10548 10545 10542 10538 10535 10531 10527 10524 10520 10517 10512 10508 10504 10499 10495 10490 10485 10481 10477 10472 10467 10463 10458 10454 10449 10444 10439 10434 10429 10424 10418 10413 10408 10403 10398 10392 10387 10381 10375 10369 10363 10357 10352 10345 10340 10334 10328 10322 10315 10308 10301 10294 10287
10620 10618 10617 10616 10614 10613 10611 10610 10608 10607 10605 10602 10599 10597 10594 10592 10590 10587 10585 10583 10581 10578 10576 10573 10571 10568 10565 10562 10558 10556 10553 10550 10547 10543 10540 10537 10533 10529 10525 10522 10518 10515 10510 10507 10502 10498 10493 10488 10484 10480 10475 10470 10466 10462 10457 10452 10447 10443 10438 10433 10428 10422 10417 10412 10407 10401 10395 10390 10385 10378 10373 10367 10361 10355 10349 10343 10337 10332 10325 10318 10312 10305 10297 10290 10283 10276
10615 10615 10613 10611 10609 10607 10606 10605 10604 10602 10600 10597 10595 10592 10589 10587 10585 10582 10580 10578 10576 10573 10571 10568 10566 10563 10560 10557 10553 10550 10547 10544 10541 10538 10535 10531 10527 10523 10520 10516 10512 10508 10505 10501 10497 10492 10487 10483 10478 10473 10469 10465 10460 10455 10450 10446 10441 10437 10432 10426 10421 10415 10410 10405 10399 10394 10388 10383 10377 10371 10365 10358 10353 10347 10340 10335 10329 10323 10316 10309 10302 10294 10286 10279 10272 10265
10610 10610 10608 10607 10605 10603 10602 10600 10599 10597 10595 10592 10590 10587 10585 10582 10580 10578 10575 10573 10571 10568 10566 10563 10560 10558 10555 10552 10548 10545 10542 10539 10535 10532 10529 10525 10522 10518 10514 10510 10506 10502 10498 10495 10490 10486 10482 10477 10472 10468 10463 10458 10454 10449 10445 10440 10435 10430 10425 10420 10414 10408 10403 10398 10392 10387 10381 10375 10369 10363 10357 10350 10345 10338 10333 10327 10320 10313 10307 10299 10291 10283 10276 10268 10261 10253
10606 10605 10604 10603 10601 10599 10598 10596 10594 10592 10590 10587 10585 10582 10580 10578 10576 10573 10571 10568 10566 10563 10560 10558 10555 10553 10550 10547 10543 10540 10537 10533 10530 10527 10523 10520 10517 10512 10508 10504 10500 10496 10492 10488 10484 10480 10475 10471 10467 10462 10458 10453 10448 10444 10439 10435 10430 10424 10419 10413 10408 10402 10397 10391 10385 10379 10373 10367 10361 10355 10349 10343 10337 10331 10325 10318 10311 10304 10297 10288 10281 10273 10265 10258 10250 10243
10601 10600 10599 10598 10597 10595 10593 10591 10590 10588 10586 10583 10580 10577 10575 10573 10571 10569 10567 10564 10562 10558 10556 10552 10550 10547 10545 10542 10538 10535 10532 10528 10525 10522 10518 10515 10510 10507 10502 10498 10493 10490 10486 10482 10478 10473 10470 10465 10461 10457 10452 10448 10443 10438 10434 10429 10424 10418 10413 10407 10402 10396 10390 10384 10378 10372 10366 10360 10354 10348 10342 10336 10330 10323 10317 10309 10302 10294 10287 10278 10271 10263 10255 10247 10240 10233
10597 10595 10594 10593 10592 10590 10588 10586 10584 10583 10582 10579 10576 10573 10571 10568 10566 10563 10562 10559 10557 10554 10551 10548 10544 10541 10538 10537 10534 10530 10527 10523 10520 10517 10513 10509 10504 10500 10495 10492 10487 10483 10479 10475 10471 10467 10463 10459 10455 10451 10447 10442 10438 10433 10428 10423 10418 10412 10407 10401 10395 10389 10383 10377 10372 10365 10359 10353 10347 10341 10335 10328 10322 10315 10307 10300 10292 10284 10276 10268 10260 10253 10245 10237 10230 10223
10593 10592 10590 10588 10587 10586 10584 10582 10580 10578 10577 10575 10572 10569 10567 10564 10562 10558 10556 10553 10551 10548 10546 10543 10540 10536 10532 10530 10528 10525 10522 10518 10514 10510 10507 10503 10498 10493 10489 10485 10481 10477 10473 10468 10465 10460 10457 10453 10448 10445 10440 10436 10432 10427 10422 10417 10412 10406 10400 10394 10388 10382 10377 10370 10364 10358 10352 10346 10340 10333 10327 10320 10313 10305 10298 10290 10282 10274 10266 10258 10250 10242 10235 10228 10221 10214
10589 10588 10587 10585 10583 10581 10580 10578 10575 10573 10572 10570 10567 10565 10562 10560 10558 10555 10550 10547 10545 10542 10540 10537 10535 10532 10528 10523 10520 10518 10515 10512 10508 10504 10501 10497 10493 10488 10483 10478 10475 10470 10467 10462 10458 10454 10450 10446 10442 10438 10434 10430 10425 10420 10416 10410 10405 10399 10393 10387 10382 10375 10369 10363 10357 10351 10345 10338 10332 10325 10318 10311 10303 10296 10288 10280 10272 10263 10256 10248 10240 10233 10225 10218 10212 10205
10585 10583 10582 10580 10578 10577 10575 10573 10571 10569 10567 10565 10562 10560 10557 10555 10553 10551 10547 10543 10540 10537 10535 10532 10529 10527 10523 10520 10515 10512 10508 10505 10502 10498 10494 10490 10486 10482 10477 10472 10468 10464 10460 10455 10452 10448 10444 10440 10436 10432 10428 10423 10418 10413 10408 10403 10398 10392 10386 10380 10374 10368 10362 10356 10350 10343 10337 10331 10324 10317 10310 10302 10294 10286 10278 10270 10262 10254 10246 10238 10231 10224 10217 10210 10203 10197
10580 10579 10578 10576 10574 10572 10570 10568 10566 10564 10562 10560 10558 10555 10552 10550 10548 10546 10542 10539 10536 10533 10530 10527 10523 10521 10518 10515 10512 10507 10503 10500 10496 10492 10488 10484 10480 10475 10470 10465 10460 10457 10453 10449 10445 10441 10438 10434 10430 10425 10421 10417 10412 10407 10402 10396 10390 10385 10379 10373 10367 10361 10355 10348 10342 10336 10329 10322 10315 10308 10300 10293 10285 10277 10268 10261 10253 10245 10237 10230 10222 10215 10208 10201 10195 10188
10576 10575 10573 10571 10569 10567 10566 10564 10562 10560 10557 10555 10553 10551 10548 10545 10543 10540 10537 10534 10531 10528 10526 10523 10519 10516 10513 10510 10507 10502 10498 10494 10490 10485 10482 10477 10473 10469 10464 10458 10453 10450 10447 10443 10438 10434 10430 10428 10423 10418 10414 10410 10405 10400 10394 10388 10383 10378 10372 10367 10360 10354 10348 10342 10335 10328 10321 10314 10307 10299 10291 10283 10275 10268 10260 10252 10244 10237 10229 10221 10213 10207 10200 10193 10186 10180
10572 10570 10568 10567 10565 10563 10561 10560 10557 10555 10553 10551 10548 10546 10543 10540 10537 10535 10532 10528 10525 10523 10520 10518 10514 10511 10508 10505 10502 10498 10493 10488 10483 10479 10475 10470 10467 10463 10458 10453 10447 10443 10440 10437 10432 10428 10423 10420 10417 10412 10408 10403 10398 10392 10387 10382 10377 10371 10365 10359 10353 10347 10340 10333 10327 10320 10312 10305 10297 10290 10282 10274 10267 10258 10251 10243 10235 10228 10220 10212 10205 10198 10191 10184 10178 10172
10568 10567 10564 10562 10560 10558 10557 10555 10553 10551 10548 10546 10543 10541 10538 10535 10532 10529 10527 10523 10520 10518 10515 10512 10509 10505 10502 10499 10497 10494 10490 10483 10477 10472 10468 10464 10460 10456 10453 10448 10442 10437 10433 10430 10427 10422 10418 10413 10410 10405 10401 10396 10391 10385 10380 10375 10369 10363 10358 10352 10345 10339 10332 10325 10318 10311 10303 10296 10288 10281 10273 10265 10257 10250 10242 10234 10226 10218 10211 10203 10196 10189 10182 10176 10170 10164
10563 10562 10560 10558 10556 10554 10553 10551 10549 10547 10544 10542 10538 10536 10533 10530 10527 10524 10521 10518 10515 10513 10510 10507 10504 10500 10496 10492 10489 10487 10485 10480 10473 10467 10462 10458 10453 10450 10447 10443 10437 10432 10427 10423 10420 10416 10412 10407 10403 10398 10393 10388 10383 10378 10373 10367 10362 10356 10350 10344 10337 10330 10323 10317 10309 10302 10295 10287 10279 10272 10263 10256 10248 10240 10232 10224 10217 10208 10201 10194 10187 10180 10174 10168 10162 10156
10559 10558 10556 10554 10552 10550 10548 10547 10545 10542 10539 10537 10533 10530 10528 10525 10522 10520 10517 10513 10511 10508 10505 10502 10498 10495 10492 10487 10483 10480 10478 10475 10468 10462 10457 10452 10448 10444 10441 10437 10432 10427 10422 10418 10414 10410 10405 10401 10396 10392 10387 10382 10376 10371 10365 10360 10354 10348 10342 10335 10329 10322 10315 10307 10300 10293 10286 10278 10270 10262 10254 10246 10238 10230 10222 10214 10207 10199 10192 10185 10178 10172 10166 10160 10154 10148
10554 10553 10552 10550 10548 10546 10544 10542 10540 10537 10534 10531 10528 10525 10522 10519 10517 10514 10512 10508 10506 10503 10500 10497 10493 10490 10487 10483 10478 10475 10473 10470 10464 10457 10452 10447 10442 10438 10435 10431 10426 10420 10416 10412 10408 10404 10399 10394 10389 10384 10379 10374 10369 10363 10358 10352 10346 10340 10333 10327 10320 10313 10306 10298 10292 10284 10276 10268 10260 10252 10243 10235 10227 10220 10212 10204 10197 10190 10183 10176 10170 10163 10158 10152 10147 10141
10550 10548 10547 10546 10544 10542 10539 10537 10535 10532 10529 10526 10523 10520 10517 10514 10512 10509 10506 10503 10501 10498 10495 10492 10488 10485 10481 10477 10473 10470 10467 10464 10458 10452 10446 10442 10437 10433 10429 10425 10420 10414 10410 10405 10402 10398 10393 10388 10382 10377 10372 10366 10361 10355 10349 10343 10337 10331 10325 10318 10311 10304 10297 10290 10282 10274 10266 10258 10250 10242 10233 10225 10217 10210 10202 10195 10188 10181 10175 10168 10162 10156 10150 10145 10139 10134
10545 10543 10542 10542 10540 10537 10534 10532 10530 10527 10524 10521 10518 10515 10512 10509 10507 10503 10501 10498 10496 10493 10490 10487 10483 10480 10476 10472 10468 10464 10462 10458 10453 10447 10440 10435 10430 10427 10423 10420 10415 10409 10403 10399 10395 10390 10386 10381 10375 10370 10364 10358 10352 10347 10341 10335 10328 10322 10316 10309 10302 10295 10288 10280 10273 10265 10256 10248 10240 10232 10223 10215 10208 10200 10193 10187 10180 10173 10167 10160 10155 10149 10143 10138 10132 10127
10541 10539 10538 10537 10535 10532 10529 10527 10524 10522 10520 10517 10513 10510 10507 10504 10502 10498 10496 10493 10491 10488 10485 10482 10478 10475 10471 10467 10462 10458 10456 10453 10448 10443 10437 10430 10424 10420 10417 10413 10409 10403 10397 10393 10388 10383 10378 10373 10367 10362 10357 10350 10344 10338 10333 10327 10320 10314 10307 10300 10293 10287 10279 10272 10263 10255 10247 10238 10230 10222 10214 10207 10199 10192 10185 10178 10172 10165 10160 10153 10148 10142 10137 10131 10126 10121
10537 10535 10533 10532 10530 10528 10525 10522 10520 10517 10515 10512 10509 10506 10503 10500 10497 10494 10492 10488 10486 10483 10480 10477 10473 10470 10465 10462 10457 10453 10450 10447 10443 10438 10432 10426 10420 10414 10410 10407 10402 10396 10390 10386 10382 10378 10371 10365 10359 10354 10349 10342 10336 10330 10324 10318 10312 10306 10299 10292 10285 10278 10270 10263 10255 10247 10238 10230 10222 10213 10206 10198 10192 10185 10178 10172 10165 10158 10153 10147 10142 10136 10130 10125 10120 10115
10532 10531 10529 10527 10525 10523 10520 10517 10515 10512 10510 10507 10504 10502 10498 10496 10493 10490 10487 10485 10482 10478 10475 10472 10468 10463 10460 10456 10452 10448 10444 10441 10438 10433 10427 10421 10415 10409 10405 10402 10397 10390 10382 10378 10375 10371 10365 10358 10352 10346 10341 10335 10328 10322 10317 10310 10305 10298 10292 10285 10278 10270 10263 10255 10247 10238 10230 10222 10213 10205 10198 10191 10184 10178 10171 10164 10158 10152 10147 10141 10135 10130 10124 10120 10115 10110
10528 10527 10525 10523 10520 10518 10515 10513 10510 10507 10505 10502 10499 10497 10493 10491 10488 10486 10483 10480 10477 10473 10470 10467 10463 10458 10455 10451 10447 10442 10437 10435 10432 10428 10423 10416 10409 10403 10398 10395 10392 10385 10377 10371 10367 10363 10358 10351 10344 10338 10333 10328 10322 10316 10309 10303 10297 10291 10285 10278 10270 10263 10255 10247 10239 10231 10222 10213 10205 10198 10191 10184 10177 10170 10164 10158 10152 10146 10140 10135 10129 10124 10119 10114 10110 10106
10524 10522 10520 10518 10516 10513 10511 10508 10505 10503 10500 10497 10495 10492 10489 10487 10483 10481 10478 10475 10472 10469 10465 10462 10457 10453 10450 10446 10442 10437 10432 10428 10425 10422 10418 10412 10405 10398 10392 10388 10385 10379 10372 10365 10360 10356 10352 10345 10337 10330 10325 10320 10315 10310 10303 10297 10290 10284 10278 10271 10263 10256 10248 10240 10232 10223 10215 10206 10198 10191 10183 10177 10170 10163 10157 10151 10145 10140 10134 10129 10123 10118 10114 10110 10105 10102
10520 10518 10515 10513 10511 10508 10506 10503 10501 10498 10495 10493 10490 10487 10485 10482 10479 10476 10472 10470 10467 10464 10461 10457 10453 10448 10444 10440 10435 10432 10427 10423 10420 10416 10412 10407 10401 10393 10387 10383 10378 10373 10366 10359 10353 10349 10346 10340 10333 10325 10318 10312 10308 10303 10298 10291 10284 10278 10271 10263 10256 10248 10240 10232 10223 10215 10207 10198 10191 10183 10177 10170 10163 10157 10151 10145 10140 10134 10129 10123 10118 10114 10110 10105 10101 10097
10515 10513 10511 10509 10507 10504 10501 10498 10496 10493 10490 10488 10485 10483 10481 10478 10475 10472 10467 10465 10462 10460 10456 10452 10448 10444 10439 10434 10430 10425 10422 10418 10414 10410 10406 10401 10395 10388 10383 10378 10373 10367 10360 10353 10346 10340 10337 10334 10329 10322 10313 10305 10300 10295 10290 10284 10278 10271 10263 10256 10248 10240 10232 10224 10216 10207 10199 10191 10184 10177 10170 10164 10157 10151 10145 10140 10135 10129 10124 10119 10114 10110 10105 10101 10097 10093
10510 10508 10507 10504 10502 10499 10497 10494 10491 10488 10486 10483 10481 10478 10476 10474 10472 10468 10463 10460 10458 10455 10451 10447 10443 10439 10434 10429 10424 10420 10416 10413 10409 10405 10401 10395 10388 10382 10377 10373 10368 10362 10356 10349 10340 10331 10325 10323 10322 10318 10310 10302 10293 10287 10282 10277 10270 10263 10255 10247 10240 10232 10224 10217 10208 10200 10192 10184 10177 10171 10165 10158 10152 10145 10140 10135 10130 10124 10119 10115 10110 10105 10102 10097 10093 10088
10506 10504 10502 10499 10497 10495 10492 10489 10486 10483 10481 10479 10477 10474 10472 10469 10467 10463 10460 10457 10454 10450 10447 10442 10437 10433 10429 10425 10420 10414 10409 10405 10402 10400 10396 10390 10383 10376 10372 10367 10362 10356 10351 10345 10337 10326 10317 10311 10308 10308 10305 10298 10290 10282 10275 10269 10263 10255 10247 10239 10231 10223 10217 10209 10202 10193 10185 10178 10172 10165 10159 10152 10146 10140 10135 10130 10125 10120 10115 10110 10106 10102 10097 10093 10089 10085
10502 10500 10497 10495 10492 10490 10487 10484 10482 10479 10477 10475 10472 10470 10467 10465 10462 10459 10456 10453 10450 10446 10442 10437 10432 10428 10425 10421 10417 10410 10403 10398 10395 10393 10390 10385 10378 10372 10367 10363 10357 10350 10345 10340 10335 10326 10315 10305 10298 10295 10293 10289 10283 10277 10269 10262 10254 10247 10239 10231 10223 10216 10209 10202 10195 10187 10179 10172 10166 10160 10153 10147 10141 10135 10130 10125 10121 10116 10111 10106 10102 10097 10093 10089 10085 10082
10497 10495 10493 10490 10487 10485 10482 10479 10477 10474 10472 10470 10468 10465 10463 10460 10457 10455 10452 10448 10445 10441 10437 10432 10428 10423 10420 10417 10412 10407 10401 10395 10390 10387 10384 10380 10373 10367 10362 10358 10352 10345 10339 10333 10329 10323 10316 10306 10297 10290 10285 10281 10276 10270 10263 10255 10247 10238 10231 10223 10217 10209 10203 10196 10188 10181 10173 10167 10161 10155 10149 10143 10137 10131 10126 10122 10117 10112 10107 10102 10098 10093 10090 10086 10082 10078
10493 10490 10488 10485 10483 10480 10477 10475 10472 10470 10468 10465 10463 10461 10458 10456 10453 10450 10447 10443 10440 10436 10432 10428 10423 10419 10415 10410 10406 10401 10396 10391 10387 10383 10379 10375 10368 10362 10356 10352 10347 10340 10333 10327 10322 10316 10310 10303 10295 10288 10281 10274 10268 10263 10257 10249 10240 10232 10224 10217 10210 10203 10197 10190 10182 10175 10168 10162 10156 10150 10144 10138 10132 10127 10122 10117 10112 10108 10103 10098 10094 10090 10087 10083 10079 10076
10488 10486 10483 10480 10478 10475 10472 10470 10467 10465 10463 10461 10459 10457 10454 10452 10448 10445 10442 10438 10435 10431 10427 10423 10420 10415 10410 10405 10400 10394 10389 10385 10382 10378 10374 10370 10363 10357 10351 10345 10340 10335 10328 10322 10315 10309 10303 10296 10289 10282 10276 10268 10261 10255 10248 10242 10235 10227 10218 10212 10205 10198 10192 10184 10177 10169 10162 10156 10151 10145 10140 10134 10128 10123 10118 10113 10108 10103 10099 10095 10091 10087 10083 10080 10077 10073
10483 10481 10478 10475 10472 10470 10467 10465 10463 10461 10459 10457 10455 10452 10450 10447 10443 10440 10437 10433 10430 10426 10422 10419 10415 10411 10407 10402 10396 10390 10384 10379 10375 10372 10368 10364 10359 10353 10347 10340 10335 10330 10324 10317 10309 10303 10297 10290 10283 10277 10271 10263 10255 10247 10240 10233 10227 10220 10213 10207 10200 10193 10187 10179 10172 10165 10158 10152 10146 10141 10135 10130 10125 10119 10114 10109 10105 10100 10096 10092 10088 10085 10081 10078 10075 10071
10479 10476 10473 10470 10467 10465 10462 10460 10458 10457 10455 10453 10450 10448 10445 10442 10438 10435 10432 10428 10425 10421 10417 10413 10410 10406 10402 10397 10393 10387 10381 10375 10371 10367 10363 10358 10354 10348 10342 10335 10330 10325 10319 10312 10305 10297 10291 10284 10277 10270 10265 10258 10250 10242 10234 10226 10219 10213 10206 10200 10195 10188 10181 10173 10167 10160 10153 10147 10142 10137 10132 10126 10120 10115 10110 10105 10101 10097 10093 10089 10085 10082 10079 10075 10072 10069
10474 10471 10468 10465 10463 10460 10458 10456 10454 10452 10450 10448 10446 10443 10440 10437 10433 10430 10427 10423 10420 10416 10413 10408 10404 10400 10396 10392 10387 10383 10378 10372 10367 10362 10357 10353 10348 10343 10338 10331 10325 10319 10315 10308 10301 10293 10286 10278 10272 10264 10257 10250 10243 10236 10228 10221 10213 10207 10200 10195 10189 10183 10177 10169 10162 10156 10150 10143 10138 10133 10128 10122 10117 10112 10107 10102 10098 10093 10090 10087 10083 10080 10077 10073 10070 10067
10468 10466 10463 10460 10458 10456 10454 10452 10450 10448 10447 10444 10442 10438 10435 10432 10428 10425 10422 10418 10415 10412 10408 10403 10399 10394 10390 10385 10382 10377 10372 10367 10362 10357 10352 10347 10342 10338 10332 10326 10320 10313 10308 10303 10297 10290 10283 10275 10268 10260 10252 10244 10237 10229 10222 10215 10208 10202 10195 10190 10185 10178 10172 10165 10158 10152 10146 10140 10135 10130 10125 10119 10114 10108 10103 10099 10095 10091 10088 10084 10081 10078 10075 10072 10068 10065
10463 10461 10458 10456 10453 10452 10450 10448 10446 10444 10442 10440 10437 10433 10430 10427 10423 10420 10417 10414 10410 10407 10403 10398 10394 10389 10385 10380 10376 10372 10367 10362 10357 10352 10347 10342 10337 10332 10327 10321 10315 10308 10302 10297 10291 10285 10278 10272 10264 10257 10249 10241 10233 10224 10217 10210 10203 10197 10191 10185 10179 10173 10167 10161 10154 10148 10143 10137 10132 10126 10121 10116 10110 10105 10101 10097 10093 10089 10086 10082 10079 10077 10073 10070 10067 10063
10459 10457 10453 10451 10449 10448 10446 10444 10442 10440 10438 10435 10432 10428 10425 10422 10418 10415 10412 10409 10406 10402 10398 10393 10388 10384 10380 10376 10372 10367 10362 10356 10351 10346 10341 10336 10331 10326 10321 10316 10310 10304 10298 10292 10285 10279 10273 10267 10260 10252 10244 10237 10228 10220 10212 10206 10200 10193 10188 10182 10175 10169 10163 10157 10152 10145 10140 10134 10128 10123 10117 10112 10108 10103 10098 10095 10091 10087 10084 10081 10078 10075 10072 10068 10065 10062
10455 10452 10448 10447 10445 10443 10442 10440 10438 10436 10433 10430 10427 10423 10420 10417 10414 10410 10407 10403 10400 10396 10392 10388 10383 10378 10373 10370 10365 10362 10357 10352 10347 10341 10336 10330 10325 10320 10315 10310 10305 10300 10293 10287 10280 10273 10268 10262 10255 10247 10239 10232 10223 10215 10208 10201 10195 10190 10185 10179 10173 10167 10160 10155 10150 10143 10137 10131 10125 10120 10115 10110 10105 10100 10097 10093 10089 10086 10083 10080 10077 10073 10070 10067 10064 10061
10450 10447 10444 10442 10441 10439 10437 10436 10433 10431 10428 10425 10422 10418 10415 10412 10409 10406 10402 10398 10394 10390 10385 10382 10377 10373 10368 10363 10358 10355 10351 10347 10342 10337 10331 10325 10320 10315 10310 10305 10299 10294 10288 10282 10275 10268 10262 10256 10250 10243 10236 10228 10220 10212 10204 10197 10192 10187 10182 10176 10170 10163 10157 10151 10146 10140 10134 10128 10122 10117 10112 10107 10103 10098 10095 10091 10088 10085 10082 10078 10075 10072 10069 10066 10063 10060
10445 10442 10440 10438 10437 10435 10433 10432 10429 10426 10423 10420 10417 10413 10410 10407 10405 10402 10398 10393 10388 10384 10380 10376 10372 10367 10363 10358 10353 10348 10343 10340 10336 10331 10326 10320 10315 10310 10304 10298 10293 10288 10283 10277 10271 10263 10256 10250 10243 10237 10231 10224 10217 10209 10201 10194 10188 10183 10178 10173 10167 10161 10154 10147 10142 10137 10130 10125 10120 10114 10109 10105 10100 10097 10093 10090 10087 10083 10080 10077 10074 10071 10068 10065 10062 10060
10440 10438 10436 10434 10432 10431 10429 10427 10423 10421 10418 10415 10411 10408 10405 10402 10400 10397 10393 10388 10383 10379 10375 10371 10367 10362 10357 10352 10347 10343 10338 10333 10329 10325 10320 10315 10310 10304 10299 10293 10288 10282 10277 10272 10266 10260 10253 10245 10238 10231 10225 10219 10213 10206 10198 10191 10185 10179 10175 10170 10165 10158 10152 10146 10139 10133 10127 10122 10117 10112 10107 10103 10099 10095 10092 10088 10085 10082 10079 10076 10073 10070 10067 10064 10062 10059
10436 10433 10432 10430 10428 10427 10424 10422 10418 10415 10413 10410 10406 10403 10400 10397 10395 10391 10387 10383 10378 10373 10370 10366 10362 10358 10352 10347 10342 10338 10333 10328 10324 10319 10315 10309 10304 10298 10293 10288 10282 10277 10271 10266 10260 10255 10249 10242 10235 10228 10221 10214 10208 10202 10196 10189 10182 10176 10171 10167 10161 10155 10149 10143 10137 10130 10125 10119 10114 10110 10105 10102 10097 10093 10090 10087 10084 10081 10078 10075 10072 10069 10066 10063 10061 10058
10432 10430 10428 10425 10423 10422 10419 10417 10413 10410 10407 10404 10401 10398 10395 10392 10389 10386 10382 10378 10374 10370 10365 10362 10358 10353 10348 10343 10338 10334 10329 10324 10318 10314 10309 10304 10299 10293 10288 10283 10277 10272 10267 10261 10256 10250 10244 10238 10232 10225 10218 10210 10203 10197 10192 10186 10180 10173 10168 10163 10157 10152 10145 10139 10133 10127 10122 10117 10112 10108 10103 10100 10096 10093 10089 10086 10083 10080 10077 10074 10071 10068 10065 10063 10060 10058
10427 10425 10423 10421 10419 10417 10414 10412 10409 10406 10403 10400 10397 10393 10391 10388 10384 10380 10377 10373 10370 10366 10362 10357 10353 10348 10344 10340 10335 10331 10326 10320 10315 10310 10305 10300 10295 10289 10283 10278 10272 10267 10262 10257 10252 10247 10240 10235 10228 10222 10215 10207 10200 10193 10187 10182 10176 10170 10164 10159 10153 10148 10142 10136 10130 10124 10119 10115 10110 10106 10102 10098 10095 10092 10088 10085 10082 10079 10076 10073 10070 10067 10065 10062 10060 10058
10423 10421 10419 10417 10415 10412 10409 10407 10404 10401 10398 10395 10392 10389 10386 10383 10380 10376 10372 10368 10365 10361 10357 10352 10348 10344 10340 10335 10331 10327 10322 10317 10312 10307 10302 10296 10291 10285 10279 10273 10267 10262 10257 10252 10247 10242 10237 10231 10225 10219 10213 10205 10198 10190 10183 10178 10172 10167 10161 10155 10150 10145 10138 10133 10127 10122 10117 10113 10108 10105 10101 10097 10093 10090 10087 10084 10081 10078 10075 10072 10069 10067 10064 10062 10060 10058
10419 10417 10415 10412 10410 10407 10405 10402 10399 10397 10393 10391 10388 10385 10381 10378 10375 10372 10368 10364 10360 10356 10352 10348 10344 10340 10335 10331 10327 10322 10318 10313 10308 10302 10297 10292 10287 10281 10275 10269 10263 10257 10252 10246 10241 10236 10231 10225 10219 10214 10210 10204 10197 10188 10180 10173 10168 10163 10158 10153 10147 10142 10135 10130 10124 10120 10115 10111 10107 10103 10100 10096 10093 10089 10086 10083 10080 10077 10074 10072 10068 10066 10063 10062 10060 10058
10415 10412 10410 10408 10405 10403 10400 10397 10395 10392 10390 10387 10383 10380 10377 10373 10370 10367 10363 10360 10356 10352 10348 10343 10340 10336 10331 10327 10322 10317 10313 10308 10303 10298 10292 10287 10282 10277 10270 10264 10258 10253 10247 10241 10235 10229 10224 10218 10212 10206 10202 10199 10194 10187 10178 10170 10163 10158 10153 10149 10145 10139 10133 10127 10122 10118 10113 10110 10105 10102 10098 10095 10092 10088 10085 10082 10079 10076 10073 10070 10068 10065 10063 10061 10059 10057
10410 10407 10405 10403 10400 10398 10395 10393 10390 10388 10385 10382 10379 10375 10372 10369 10365 10362 10358 10355 10351 10347 10343 10339 10335 10332 10328 10323 10318 10313 10308 10304 10299 10293 10288 10282 10277 10272 10266 10260 10255 10249 10243 10237 10230 10224 10218 10212 10206 10200 10195 10192 10188 10183 10176 10168 10161 10155 10150 10146 10142 10137 10130 10125 10120 10116 10112 10108 10104 10100 10097 10093 10090 10087 10084 10081 10078 10075 10072 10070 10067 10065 10063 10061 10059 10057